This demonstration page uses our WeatherBlox Daily Observations layout. Learn more.

Left ArrowRight Arrow

Hourly Observations for December 28, 2021

Temp ( °F °C ) Dew Point ( °F °C ) Humidity (%) Winds ( mph kmh ) Pressure ( in mb ) Visibility ( mi km ) Precip ( " mm )
12:51 am 00:51 Clear 46 7.8 36 2.2 68 68 WNW 14 22 29.78 1009 10 16 0.00 0.00
1:51 am 01:51 Clear 42 5.6 33 0.6 71 71 WNW 9 15 29.78 1008 10 16 0.00 0.00
2:51 am 02:51 Clear 42 5.6 34 1.1 73 73 WSW 7 11 29.78 1009 10 16 0.00 0.00
3:51 am 03:51 Clear 37 2.8 33 0.6 86 86 Calm 29.79 1009 10 16 0.00 0.00
4:51 am 04:51 Clear 32 0 31 -0.6 96 96 Calm 29.78 1009 10 16 0.00 0.00
5:51 am 05:51 Clear 32 0 31 -0.6 96 96 NNE 3 6 29.80 1009 10 16 0.00 0.00
6:51 am 06:51 Clear 33 0.6 31 -0.6 92 92 Calm 29.82 1010 10 16 0.00 0.00
7:51 am 07:51 Sunny 32 0 32 0 100 100 SSE 6 9 29.85 1011 10 16 0.00 0.00
8:51 am 08:51 Sunny 38 3.3 34 1.1 86 86 ESE 3 6 29.85 1011 10 16 0.00 0.00
9:51 am 09:51 Sunny 44 6.7 36 2.2 73 73 S 5 7 29.84 1011 10 16 0.00 0.00
10:51 am 10:51 Sunny 48 8.9 35 1.7 61 61 W 5 7 29.83 1010 10 16 0.00 0.00
11:51 am 11:51 Sunny 51 10.6 35 1.7 54 54 VRB 6 9 29.78 1009 10 16 0.00 0.00
12:51 pm 12:51 Sunny 52 11.1 33 0.6 49 49 W 10 17 29.75 1007 10 16 0.00 0.00
1:51 pm 13:51 Mostly Sunny 52 11.1 34 1.1 50 50 WSW 5 7 29.73 1007 10 16 0.00 0.00
2:51 pm 14:51 Sunny 53 11.7 33 0.6 47 47 Calm 29.71 1006 10 16 0.00 0.00
3:51 pm 15:51 Sunny 54 12.2 32 0 43 43 WNW 6 9 29.71 1006 10 16 0.00 0.00
4:51 pm 16:51 Sunny 52 11.1 32 0 47 47 WNW 8 13 29.72 1006 10 16 0.00 0.00
5:51 pm 17:51 Clear 48 8.9 33 0.6 56 56 N 7 11 29.73 1007 10 16 0.00 0.00
6:51 pm 18:51 Clear 47 8.3 32 0 56 56 N 6 9 29.74 1007 10 16 0.00 0.00
7:51 pm 19:51 Mostly Clear 46 7.8 33 0.6 61 61 Calm 29.76 1008 10 16 0.00 0.00
8:51 pm 20:51 Cloudy 48 8.9 33 0.6 56 56 NW 3 6 29.75 1007 10 16 0.00 0.00
9:51 pm 21:51 Cloudy 47 8.3 34 1.1 61 61 S 3 6 29.74 1007 10 16 0.00 0.00
10:51 pm 22:51 Cloudy 47 8.3 36 2.2 66 66 WSW 3 6 29.74 1007 10 16 0.00 0.00
11:51 pm 23:51 Partly Cloudy 44 6.7 36 2.2 73 73 NNW 5 7 29.74 1007 10 16 0.00 0.00

Powered by AerisWeather